Year,Month,Day,Hour,Minute,Value (Times are PST for temperature in C)
2012,05,25,00,00,9.00
2012,05,25,00,01,9.00
2012,05,25,00,02,8.90
2012,05,25,00,03,8.90
2012,05,25,00,04,8.90
2012,05,25,00,05,8.90
2012,05,25,00,06,8.90
2012,05,25,00,07,8.80
2012,05,25,00,08,8.80
2012,05,25,00,09,8.80
2012,05,25,00,10,8.80
2012,05,25,00,11,8.80
2012,05,25,00,12,8.70
2012,05,25,00,13,8.70
2012,05,25,00,14,8.70
2012,05,25,00,15,8.70
2012,05,25,00,16,8.70
2012,05,25,00,17,8.70
2012,05,25,00,18,8.70
2012,05,25,00,19,8.70
2012,05,25,00,20,8.70
2012,05,25,00,21,8.70
2012,05,25,00,22,8.70
2012,05,25,00,23,8.70
2012,05,25,00,24,8.70
2012,05,25,00,25,8.70
2012,05,25,00,26,8.70
2012,05,25,00,27,8.70
2012,05,25,00,28,8.80
2012,05,25,00,29,8.80
2012,05,25,00,30,8.90
2012,05,25,00,31,8.90
2012,05,25,00,32,9.00
2012,05,25,00,33,9.10
2012,05,25,00,34,9.20
2012,05,25,00,35,9.20
2012,05,25,00,36,9.40
2012,05,25,00,37,9.50
2012,05,25,00,38,9.60
2012,05,25,00,39,9.70
2012,05,25,00,40,9.80
2012,05,25,00,41,10.00
2012,05,25,00,42,10.10
2012,05,25,00,43,10.20
2012,05,25,00,44,10.30
2012,05,25,00,45,10.50
2012,05,25,00,46,10.60
2012,05,25,00,47,10.80
2012,05,25,00,48,10.90
2012,05,25,00,49,11.00
2012,05,25,00,50,11.10
2012,05,25,00,51,11.10
2012,05,25,00,52,11.10
2012,05,25,00,53,11.20
2012,05,25,00,54,11.20
2012,05,25,00,55,11.20
2012,05,25,00,56,11.20
2012,05,25,00,57,11.30
2012,05,25,00,58,11.30
2012,05,25,00,59,11.30
2012,05,25,01,00,11.30
2012,05,25,01,01,11.40
2012,05,25,01,02,11.40
2012,05,25,01,03,11.30
2012,05,25,01,04,11.20
2012,05,25,01,05,11.10
2012,05,25,01,06,11.10
2012,05,25,01,07,11.00
2012,05,25,01,08,10.90
2012,05,25,01,09,10.90
2012,05,25,01,10,10.90
2012,05,25,01,11,11.00
2012,05,25,01,12,11.10
2012,05,25,01,13,11.20
2012,05,25,01,14,11.40
2012,05,25,01,15,11.50
2012,05,25,01,16,11.60
2012,05,25,01,17,11.70
2012,05,25,01,18,11.80
2012,05,25,01,19,11.90
2012,05,25,01,20,11.90
2012,05,25,01,21,12.00
2012,05,25,01,22,12.00
2012,05,25,01,23,12.00
2012,05,25,01,24,12.00
2012,05,25,01,25,12.00
2012,05,25,01,26,12.00
2012,05,25,01,27,11.90
2012,05,25,01,28,12.00
2012,05,25,01,29,11.90
2012,05,25,01,30,11.90
2012,05,25,01,31,11.90
2012,05,25,01,32,11.90
2012,05,25,01,33,11.90
2012,05,25,01,34,11.90
2012,05,25,01,35,11.80
2012,05,25,01,36,11.70
2012,05,25,01,37,11.70
2012,05,25,01,38,11.60
2012,05,25,01,39,11.40
2012,05,25,01,40,11.30
2012,05,25,01,41,11.20
2012,05,25,01,42,11.10
2012,05,25,01,43,11.00
2012,05,25,01,44,10.90
2012,05,25,01,45,10.80
2012,05,25,01,46,10.80
2012,05,25,01,47,10.80
2012,05,25,01,48,10.80
2012,05,25,01,49,10.70
2012,05,25,01,50,10.70
2012,05,25,01,51,10.60
2012,05,25,01,52,10.60
2012,05,25,01,53,10.50
2012,05,25,01,54,10.50
2012,05,25,01,55,10.40
2012,05,25,01,56,10.40
2012,05,25,01,57,10.40
2012,05,25,01,58,10.30
2012,05,25,01,59,10.30
2012,05,25,02,00,10.40
2012,05,25,02,01,10.40
2012,05,25,02,02,10.40
2012,05,25,02,03,10.50
2012,05,25,02,04,10.40
2012,05,25,02,05,10.40
2012,05,25,02,06,10.40
2012,05,25,02,07,10.30
2012,05,25,02,08,10.30
2012,05,25,02,09,10.20
2012,05,25,02,10,10.20
2012,05,25,02,11,10.10
2012,05,25,02,12,10.10
2012,05,25,02,13,10.00
2012,05,25,02,14,10.00
2012,05,25,02,15,10.00
2012,05,25,02,16,9.90
2012,05,25,02,17,9.90
2012,05,25,02,18,9.90
2012,05,25,02,19,9.90
2012,05,25,02,20,9.90
2012,05,25,02,21,9.80
2012,05,25,02,22,9.80
2012,05,25,02,23,9.80
2012,05,25,02,24,9.80
2012,05,25,02,25,9.80
2012,05,25,02,26,9.80
2012,05,25,02,27,9.80
2012,05,25,02,28,9.80
2012,05,25,02,29,9.80
2012,05,25,02,30,9.90
2012,05,25,02,31,9.90
2012,05,25,02,32,9.90
2012,05,25,02,33,9.90
2012,05,25,02,34,9.90
2012,05,25,02,35,9.90
2012,05,25,02,36,9.80
2012,05,25,02,37,9.80
2012,05,25,02,38,9.80
2012,05,25,02,39,9.80
2012,05,25,02,40,9.70
2012,05,25,02,41,9.70
2012,05,25,02,42,9.70
2012,05,25,02,43,9.70
2012,05,25,02,44,9.60
2012,05,25,02,45,9.60
2012,05,25,02,46,9.60
2012,05,25,02,47,9.50
2012,05,25,02,48,9.50
2012,05,25,02,49,9.40
2012,05,25,02,50,9.40
2012,05,25,02,51,9.40
2012,05,25,02,52,9.40
2012,05,25,02,53,9.30
2012,05,25,02,54,9.30
2012,05,25,02,55,9.30
2012,05,25,02,56,9.30
2012,05,25,02,57,9.40
2012,05,25,02,58,9.40
2012,05,25,02,59,9.40
2012,05,25,03,00,9.40
2012,05,25,03,01,9.40
2012,05,25,03,02,9.40
2012,05,25,03,03,9.40
2012,05,25,03,04,9.40
2012,05,25,03,05,9.40
2012,05,25,03,06,9.30
2012,05,25,03,07,9.30
2012,05,25,03,08,9.30
2012,05,25,03,09,9.30
2012,05,25,03,10,9.40
2012,05,25,03,11,9.40
2012,05,25,03,12,9.50
2012,05,25,03,13,9.50
2012,05,25,03,14,9.60
2012,05,25,03,15,9.60
2012,05,25,03,16,9.60
2012,05,25,03,17,9.60
2012,05,25,03,18,9.60
2012,05,25,03,19,9.70
2012,05,25,03,20,9.70
2012,05,25,03,21,9.80
2012,05,25,03,22,9.80
2012,05,25,03,23,9.80
2012,05,25,03,24,9.80
2012,05,25,03,25,9.80
2012,05,25,03,26,9.80
2012,05,25,03,27,9.80
2012,05,25,03,28,9.70
2012,05,25,03,29,9.70
2012,05,25,03,30,9.60
2012,05,25,03,31,9.60
2012,05,25,03,32,9.60
2012,05,25,03,33,9.60
2012,05,25,03,34,9.60
2012,05,25,03,35,9.60
2012,05,25,03,36,9.60
2012,05,25,03,37,9.50
2012,05,25,03,38,9.50
2012,05,25,03,39,9.50
2012,05,25,03,40,9.60
2012,05,25,03,41,9.60
2012,05,25,03,42,9.60
2012,05,25,03,43,9.60
2012,05,25,03,44,9.70
2012,05,25,03,45,9.70
2012,05,25,03,46,9.80
2012,05,25,03,47,9.80
2012,05,25,03,48,9.90
2012,05,25,03,49,10.00
2012,05,25,03,50,10.10
2012,05,25,03,51,10.10
2012,05,25,03,52,10.30
2012,05,25,03,53,10.40
2012,05,25,03,54,10.50
2012,05,25,03,55,10.60
2012,05,25,03,56,10.80
2012,05,25,03,57,11.00
2012,05,25,03,58,11.10
2012,05,25,03,59,11.20
2012,05,25,04,00,11.30
2012,05,25,04,01,11.40
2012,05,25,04,02,11.50
2012,05,25,04,03,11.50
2012,05,25,04,04,11.60
2012,05,25,04,05,11.60
2012,05,25,04,06,11.60
2012,05,25,04,07,11.60
2012,05,25,04,08,11.60
2012,05,25,04,09,11.50
2012,05,25,04,10,11.40
2012,05,25,04,11,11.30
2012,05,25,04,12,11.30
2012,05,25,04,13,11.20
2012,05,25,04,14,11.10
2012,05,25,04,15,11.00
2012,05,25,04,16,10.90
2012,05,25,04,17,10.80
2012,05,25,04,18,10.80
2012,05,25,04,19,10.80
2012,05,25,04,20,10.70
2012,05,25,04,21,10.60
2012,05,25,04,22,10.50
2012,05,25,04,23,10.40
2012,05,25,04,24,10.30
2012,05,25,04,25,10.20
2012,05,25,04,26,10.10
2012,05,25,04,27,10.00
2012,05,25,04,28,10.00
2012,05,25,04,29,10.00
2012,05,25,04,30,9.90
2012,05,25,04,31,9.90
2012,05,25,04,32,10.00
2012,05,25,04,33,10.10
2012,05,25,04,34,10.20
2012,05,25,04,35,10.30
2012,05,25,04,36,10.30
2012,05,25,04,37,10.40
2012,05,25,04,38,10.50
2012,05,25,04,39,10.60
2012,05,25,04,40,10.70
2012,05,25,04,41,10.80
2012,05,25,04,42,11.00
2012,05,25,04,43,11.10
2012,05,25,04,44,11.20
2012,05,25,04,45,11.20
2012,05,25,04,46,11.30
2012,05,25,04,47,11.30
2012,05,25,04,48,11.30
2012,05,25,04,49,11.30
2012,05,25,04,50,11.40
2012,05,25,04,51,11.40
2012,05,25,04,52,11.50
2012,05,25,04,53,11.50
2012,05,25,04,54,11.50
2012,05,25,04,55,11.50
2012,05,25,04,56,11.50
2012,05,25,04,57,11.50
2012,05,25,04,58,11.60
2012,05,25,04,59,11.50
2012,05,25,05,00,11.50
2012,05,25,05,01,11.50
2012,05,25,05,02,11.50
2012,05,25,05,03,11.50
2012,05,25,05,04,11.60
2012,05,25,05,05,11.60
2012,05,25,05,06,11.70
2012,05,25,05,07,11.70
2012,05,25,05,08,11.70
2012,05,25,05,09,11.70
2012,05,25,05,10,11.70
2012,05,25,05,11,11.70
2012,05,25,05,12,11.60
2012,05,25,05,13,11.60
2012,05,25,05,14,11.50
2012,05,25,05,15,11.50
2012,05,25,05,16,11.40
2012,05,25,05,17,11.30
2012,05,25,05,18,11.30
2012,05,25,05,19,11.20
2012,05,25,05,20,11.10
2012,05,25,05,21,11.00
2012,05,25,05,22,11.00
2012,05,25,05,23,11.00
2012,05,25,05,24,11.00
2012,05,25,05,25,11.00
2012,05,25,05,26,11.10
2012,05,25,05,27,11.10
2012,05,25,05,28,11.20
2012,05,25,05,29,11.20
2012,05,25,05,30,11.30
2012,05,25,05,31,11.40
2012,05,25,05,32,11.50
2012,05,25,05,33,11.50
2012,05,25,05,34,11.60
2012,05,25,05,35,11.70
2012,05,25,05,36,11.70
2012,05,25,05,37,11.70
2012,05,25,05,38,11.70
2012,05,25,05,39,11.70
2012,05,25,05,40,11.80
2012,05,25,05,41,11.90
2012,05,25,05,42,11.90
2012,05,25,05,43,12.00
2012,05,25,05,44,12.00
2012,05,25,05,45,12.10
2012,05,25,05,46,12.10
2012,05,25,05,47,12.10
2012,05,25,05,48,12.10
2012,05,25,05,49,12.10
2012,05,25,05,50,12.20
2012,05,25,05,51,12.20
2012,05,25,05,52,12.10
2012,05,25,05,53,12.10
2012,05,25,05,54,12.10
2012,05,25,05,55,12.10
2012,05,25,05,56,12.10
2012,05,25,05,57,12.00
2012,05,25,05,58,12.00
2012,05,25,05,59,12.10
2012,05,25,06,00,12.10
2012,05,25,06,01,12.10
2012,05,25,06,02,12.10
2012,05,25,06,03,12.20
2012,05,25,06,04,12.20
2012,05,25,06,05,12.20
2012,05,25,06,06,12.20
2012,05,25,06,07,12.20
2012,05,25,06,08,12.30
2012,05,25,06,09,12.30
2012,05,25,06,10,12.30
2012,05,25,06,11,12.30
2012,05,25,06,12,12.30
2012,05,25,06,13,12.30
2012,05,25,06,14,12.40
2012,05,25,06,15,12.40
2012,05,25,06,16,12.40
2012,05,25,06,17,12.40
2012,05,25,06,18,12.50
2012,05,25,06,19,12.50
2012,05,25,06,20,12.50
2012,05,25,06,21,12.50
2012,05,25,06,22,12.40
2012,05,25,06,23,12.50
2012,05,25,06,24,12.50
2012,05,25,06,25,12.50
2012,05,25,06,26,12.60
2012,05,25,06,27,12.60
2012,05,25,06,28,12.60
2012,05,25,06,29,12.60
2012,05,25,06,30,12.60
2012,05,25,06,31,12.70
2012,05,25,06,32,12.70
2012,05,25,06,33,12.70
2012,05,25,06,34,12.70
2012,05,25,06,35,12.70
2012,05,25,06,36,12.70
2012,05,25,06,37,12.70
2012,05,25,06,38,12.80
2012,05,25,06,39,12.80
2012,05,25,06,40,12.80
2012,05,25,06,41,12.90
2012,05,25,06,42,12.90
2012,05,25,06,43,12.90
2012,05,25,06,44,13.00
2012,05,25,06,45,13.00
2012,05,25,06,46,13.10
2012,05,25,06,47,13.10
2012,05,25,06,48,13.20
2012,05,25,06,49,13.20
2012,05,25,06,50,13.30
2012,05,25,06,51,13.30
2012,05,25,06,52,13.30
2012,05,25,06,53,13.30
2012,05,25,06,54,13.40
2012,05,25,06,55,13.40
2012,05,25,06,56,13.40
2012,05,25,06,57,13.40
2012,05,25,06,58,13.40
2012,05,25,06,59,13.50
2012,05,25,07,00,13.50
2012,05,25,07,01,13.60
2012,05,25,07,02,13.60
2012,05,25,07,03,13.60
2012,05,25,07,04,13.60
2012,05,25,07,05,13.60
2012,05,25,07,06,13.70
2012,05,25,07,07,13.70
2012,05,25,07,08,13.70
2012,05,25,07,09,13.70
2012,05,25,07,10,13.70
2012,05,25,07,11,13.80
2012,05,25,07,12,13.80
2012,05,25,07,13,13.80
2012,05,25,07,14,13.80
2012,05,25,07,15,13.80
2012,05,25,07,16,13.80
2012,05,25,07,17,13.80
2012,05,25,07,18,13.90
2012,05,25,07,19,13.90
2012,05,25,07,20,13.90
2012,05,25,07,21,13.90
2012,05,25,07,22,13.90
2012,05,25,07,23,14.00
2012,05,25,07,24,14.00
2012,05,25,07,25,14.00
2012,05,25,07,26,14.10
2012,05,25,07,27,14.10
2012,05,25,07,28,14.10
2012,05,25,07,29,14.10
2012,05,25,07,30,14.10
2012,05,25,07,31,14.10
2012,05,25,07,32,14.10
2012,05,25,07,33,14.10
2012,05,25,07,34,14.10
2012,05,25,07,35,14.20
2012,05,25,07,36,14.20
2012,05,25,07,37,14.20
2012,05,25,07,38,14.20
2012,05,25,07,39,14.20
2012,05,25,07,40,14.20
2012,05,25,07,41,14.20
2012,05,25,07,42,14.20
2012,05,25,07,43,14.30
2012,05,25,07,44,14.30
2012,05,25,07,45,14.30
2012,05,25,07,46,14.30
2012,05,25,07,47,14.30
2012,05,25,07,48,14.30
2012,05,25,07,49,14.40
2012,05,25,07,50,14.40
2012,05,25,07,51,14.40
2012,05,25,07,52,14.40
2012,05,25,07,53,14.50
2012,05,25,07,54,14.50
2012,05,25,07,55,14.50
2012,05,25,07,56,14.50
2012,05,25,07,57,14.50
2012,05,25,07,58,14.60
2012,05,25,07,59,14.60
2012,05,25,08,00,14.60
2012,05,25,08,01,14.70
2012,05,25,08,02,14.70
2012,05,25,08,03,14.80
2012,05,25,08,04,14.80
2012,05,25,08,05,14.80
2012,05,25,08,06,14.90
2012,05,25,08,07,14.90
2012,05,25,08,08,15.00
2012,05,25,08,09,15.00
2012,05,25,08,10,15.00
2012,05,25,08,11,15.00
2012,05,25,08,12,15.00
2012,05,25,08,13,15.00
2012,05,25,08,14,15.00
2012,05,25,08,15,15.10
2012,05,25,08,16,15.20
2012,05,25,08,17,15.20
2012,05,25,08,18,15.20
2012,05,25,08,19,15.20
2012,05,25,08,20,15.20
2012,05,25,08,21,15.20
2012,05,25,08,22,15.30
2012,05,25,08,23,15.30
2012,05,25,08,24,15.30
2012,05,25,08,25,15.40
2012,05,25,08,26,15.40
2012,05,25,08,27,15.40
2012,05,25,08,28,15.40
2012,05,25,08,29,15.40
2012,05,25,08,30,15.40
2012,05,25,08,31,15.40
2012,05,25,08,32,15.50
2012,05,25,08,33,15.50
2012,05,25,08,34,15.60
2012,05,25,08,35,15.60
2012,05,25,08,36,15.60
2012,05,25,08,37,15.60
2012,05,25,08,38,15.60
2012,05,25,08,39,15.60
2012,05,25,08,40,15.60
2012,05,25,08,41,15.60
2012,05,25,08,42,15.60
2012,05,25,08,43,15.60
2012,05,25,08,44,15.60
2012,05,25,08,45,15.70
2012,05,25,08,46,15.70
2012,05,25,08,47,15.80
2012,05,25,08,48,15.80
2012,05,25,08,49,15.90
2012,05,25,08,50,15.90
2012,05,25,08,51,16.00
2012,05,25,08,52,16.00
2012,05,25,08,53,16.10
2012,05,25,08,54,16.10
2012,05,25,08,55,16.20
2012,05,25,08,56,16.20
2012,05,25,08,57,16.20
2012,05,25,08,58,16.30
2012,05,25,08,59,16.30
2012,05,25,09,00,16.30
2012,05,25,09,01,16.30
2012,05,25,09,02,16.30
2012,05,25,09,03,16.40
2012,05,25,09,04,16.30
2012,05,25,09,05,16.30
2012,05,25,09,06,16.30
2012,05,25,09,07,16.30
2012,05,25,09,08,16.30
2012,05,25,09,09,16.20
2012,05,25,09,10,16.30
2012,05,25,09,11,16.30
2012,05,25,09,12,16.30
2012,05,25,09,13,16.30
2012,05,25,09,14,16.40
2012,05,25,09,15,16.40
2012,05,25,09,16,16.50
2012,05,25,09,17,16.50
2012,05,25,09,18,16.50
2012,05,25,09,19,16.50
2012,05,25,09,20,16.50
2012,05,25,09,21,16.50
2012,05,25,09,22,16.60
2012,05,25,09,23,16.60
2012,05,25,09,24,16.60
2012,05,25,09,25,16.70
2012,05,25,09,26,16.70
2012,05,25,09,27,16.70
2012,05,25,09,28,16.70
2012,05,25,09,29,16.80
2012,05,25,09,30,16.80
2012,05,25,09,31,16.80
2012,05,25,09,32,16.80
2012,05,25,09,33,16.80
2012,05,25,09,34,16.80
2012,05,25,09,35,16.80
2012,05,25,09,36,16.80
2012,05,25,09,37,16.80
2012,05,25,09,38,16.80
2012,05,25,09,39,16.90
2012,05,25,09,40,17.10
2012,05,25,09,41,17.20
2012,05,25,09,42,17.30
2012,05,25,09,43,17.30
2012,05,25,09,44,17.40
2012,05,25,09,45,17.40
2012,05,25,09,46,17.40
2012,05,25,09,47,17.50
2012,05,25,09,48,17.50
2012,05,25,09,49,17.60
2012,05,25,09,50,17.60
2012,05,25,09,51,17.70
2012,05,25,09,52,17.60
2012,05,25,09,53,17.50
2012,05,25,09,54,17.50
2012,05,25,09,55,17.50
2012,05,25,09,56,17.50
2012,05,25,09,57,17.50
2012,05,25,09,58,17.50
2012,05,25,09,59,17.60
2012,05,25,10,00,17.60
2012,05,25,10,01,17.50
2012,05,25,10,02,17.50
2012,05,25,10,03,17.50
2012,05,25,10,04,17.60
2012,05,25,10,05,17.50
2012,05,25,10,06,17.40
2012,05,25,10,07,17.30
2012,05,25,10,08,17.20
2012,05,25,10,09,17.20
2012,05,25,10,10,17.20
2012,05,25,10,11,17.20
2012,05,25,10,12,17.20
2012,05,25,10,13,17.30
2012,05,25,10,14,17.30
2012,05,25,10,15,17.40
2012,05,25,10,16,17.50
2012,05,25,10,17,17.50
2012,05,25,10,18,17.60
2012,05,25,10,19,17.60
2012,05,25,10,20,17.60
2012,05,25,10,21,17.60
2012,05,25,10,22,17.60
2012,05,25,10,23,17.60
2012,05,25,10,24,17.60
2012,05,25,10,25,17.70
2012,05,25,10,26,17.70
2012,05,25,10,27,17.70
2012,05,25,10,28,17.60
2012,05,25,10,29,17.60
2012,05,25,10,30,17.60
2012,05,25,10,31,17.60
2012,05,25,10,32,17.50
2012,05,25,10,33,17.50
2012,05,25,10,34,17.50
2012,05,25,10,35,17.60
2012,05,25,10,36,17.60
2012,05,25,10,37,17.70
2012,05,25,10,38,17.70
2012,05,25,10,39,17.70
2012,05,25,10,40,17.70
2012,05,25,10,41,17.70
2012,05,25,10,42,17.80
2012,05,25,10,43,17.80
2012,05,25,10,44,17.90
2012,05,25,10,45,17.90
2012,05,25,10,46,17.90
2012,05,25,10,47,18.00
2012,05,25,10,48,18.00
2012,05,25,10,49,18.00
2012,05,25,10,50,18.10
2012,05,25,10,51,18.20
2012,05,25,10,52,18.30
2012,05,25,10,53,18.40
2012,05,25,10,54,18.50
2012,05,25,10,55,18.50
2012,05,25,10,56,18.60
2012,05,25,10,57,18.70
2012,05,25,10,58,18.80
2012,05,25,10,59,18.90
2012,05,25,11,00,18.90
2012,05,25,11,01,19.00
2012,05,25,11,02,19.00
2012,05,25,11,03,19.10
2012,05,25,11,04,19.10
2012,05,25,11,05,19.10
2012,05,25,11,06,19.20
2012,05,25,11,07,19.30
2012,05,25,11,08,19.40
2012,05,25,11,09,19.50
2012,05,25,11,10,19.60
2012,05,25,11,11,19.80
2012,05,25,11,12,19.80
2012,05,25,11,13,19.80
2012,05,25,11,14,19.80
2012,05,25,11,15,19.80
2012,05,25,11,16,19.80
2012,05,25,11,17,19.80
2012,05,25,11,18,19.80
2012,05,25,11,19,19.70
2012,05,25,11,20,19.60
2012,05,25,11,21,19.50
2012,05,25,11,22,19.30
2012,05,25,11,23,19.20
2012,05,25,11,24,19.00
2012,05,25,11,25,18.90
2012,05,25,11,26,18.80
2012,05,25,11,27,18.80
2012,05,25,11,28,18.70
2012,05,25,11,29,18.70
2012,05,25,11,30,18.70
2012,05,25,11,31,18.70
2012,05,25,11,32,18.70
2012,05,25,11,33,18.80
2012,05,25,11,34,18.90
2012,05,25,11,35,19.10
2012,05,25,11,36,19.20
2012,05,25,11,37,19.20
2012,05,25,11,38,19.30
2012,05,25,11,39,19.30
2012,05,25,11,40,19.40
2012,05,25,11,41,19.40
2012,05,25,11,42,19.30
2012,05,25,11,43,19.30
2012,05,25,11,44,19.30
2012,05,25,11,45,19.20
2012,05,25,11,46,19.20
2012,05,25,11,47,19.10
2012,05,25,11,48,19.10
2012,05,25,11,49,19.10
2012,05,25,11,50,19.00
2012,05,25,11,51,18.90
2012,05,25,11,52,18.90
2012,05,25,11,53,18.90
2012,05,25,11,54,18.90
2012,05,25,11,55,18.90
2012,05,25,11,56,18.80
2012,05,25,11,57,18.70
2012,05,25,11,58,18.70
2012,05,25,11,59,18.70
2012,05,25,12,00,18.70
2012,05,25,12,01,18.70
2012,05,25,12,02,18.70
2012,05,25,12,03,18.70
2012,05,25,12,04,18.70
2012,05,25,12,05,18.70
2012,05,25,12,06,18.60
2012,05,25,12,07,18.60
2012,05,25,12,08,18.60
2012,05,25,12,09,18.60
2012,05,25,12,10,18.70
2012,05,25,12,11,18.70
2012,05,25,12,12,18.80
2012,05,25,12,13,18.80
2012,05,25,12,14,18.80
2012,05,25,12,15,18.80
2012,05,25,12,16,18.80
2012,05,25,12,17,18.90
2012,05,25,12,18,18.90
2012,05,25,12,19,19.00
2012,05,25,12,20,19.10
2012,05,25,12,21,19.20
2012,05,25,12,22,19.30
2012,05,25,12,23,19.30
2012,05,25,12,24,19.40
2012,05,25,12,25,19.40
2012,05,25,12,26,19.40
2012,05,25,12,27,19.50
2012,05,25,12,28,19.50
2012,05,25,12,29,19.60
2012,05,25,12,30,19.70
2012,05,25,12,31,19.80
2012,05,25,12,32,19.90
2012,05,25,12,33,20.00
2012,05,25,12,34,20.00
2012,05,25,12,35,20.10
2012,05,25,12,36,20.20
2012,05,25,12,37,20.30
2012,05,25,12,38,20.40
2012,05,25,12,39,20.40
2012,05,25,12,40,20.50
2012,05,25,12,41,20.50
2012,05,25,12,42,20.60
2012,05,25,12,43,20.70
2012,05,25,12,44,20.70
2012,05,25,12,45,20.80
2012,05,25,12,46,20.90
2012,05,25,12,47,21.00
2012,05,25,12,48,21.10
2012,05,25,12,49,21.20
2012,05,25,12,50,21.30
2012,05,25,12,51,21.50
2012,05,25,12,52,21.60
2012,05,25,12,53,21.60
2012,05,25,12,54,21.60
2012,05,25,12,55,21.50
2012,05,25,12,56,21.40
2012,05,25,12,57,21.20
2012,05,25,12,58,21.10
2012,05,25,12,59,20.90
2012,05,25,13,00,20.80
2012,05,25,13,01,20.60
2012,05,25,13,02,20.50
2012,05,25,13,03,20.50
2012,05,25,13,04,20.50
2012,05,25,13,05,20.60
2012,05,25,13,06,20.60
2012,05,25,13,07,20.70
2012,05,25,13,08,20.80
2012,05,25,13,09,20.80
2012,05,25,13,10,20.90
2012,05,25,13,11,21.00
2012,05,25,13,12,21.10
2012,05,25,13,13,21.30
2012,05,25,13,14,21.40
2012,05,25,13,15,21.60
2012,05,25,13,16,21.80
2012,05,25,13,17,21.90
2012,05,25,13,18,21.90
2012,05,25,13,19,21.90
2012,05,25,13,20,21.90
2012,05,25,13,21,21.90
2012,05,25,13,22,22.00
2012,05,25,13,23,22.00
2012,05,25,13,24,22.10
2012,05,25,13,25,22.00
2012,05,25,13,26,22.00
2012,05,25,13,27,22.00
2012,05,25,13,28,22.10
2012,05,25,13,29,22.10
2012,05,25,13,30,22.20
2012,05,25,13,31,22.30
2012,05,25,13,32,22.30
2012,05,25,13,33,22.40
2012,05,25,13,34,22.40
2012,05,25,13,35,22.40
2012,05,25,13,36,22.50
2012,05,25,13,37,22.50
2012,05,25,13,38,22.60
2012,05,25,13,39,22.70
2012,05,25,13,40,22.70
2012,05,25,13,41,22.80
2012,05,25,13,42,22.90
2012,05,25,13,43,22.90
2012,05,25,13,44,22.90
2012,05,25,13,45,22.90
2012,05,25,13,46,22.80
2012,05,25,13,47,22.80
2012,05,25,13,48,22.90
2012,05,25,13,49,22.90
2012,05,25,13,50,22.90
2012,05,25,13,51,23.00
2012,05,25,13,52,23.10
2012,05,25,13,53,23.20
2012,05,25,13,54,23.20
2012,05,25,13,55,23.30
2012,05,25,13,56,23.40
2012,05,25,13,57,23.50
2012,05,25,13,58,23.60
2012,05,25,13,59,23.60
2012,05,25,14,00,23.60
2012,05,25,14,01,23.60
2012,05,25,14,02,23.70
2012,05,25,14,03,23.60
2012,05,25,14,04,23.60
2012,05,25,14,05,23.70
2012,05,25,14,06,23.70
2012,05,25,14,07,23.60
2012,05,25,14,08,23.50
2012,05,25,14,09,23.50
2012,05,25,14,10,23.60
2012,05,25,14,11,23.50
2012,05,25,14,12,23.40
2012,05,25,14,13,23.20
2012,05,25,14,14,23.00
2012,05,25,14,15,23.00
2012,05,25,14,16,22.90
2012,05,25,14,17,22.60
2012,05,25,14,18,22.30
2012,05,25,14,19,22.20
2012,05,25,14,20,22.10
2012,05,25,14,21,22.10
2012,05,25,14,22,22.10
2012,05,25,14,23,22.00
2012,05,25,14,24,21.90
2012,05,25,14,25,22.00
2012,05,25,14,26,22.10
2012,05,25,14,27,22.10
2012,05,25,14,28,22.10
2012,05,25,14,29,22.10
2012,05,25,14,30,22.10
2012,05,25,14,31,22.10
2012,05,25,14,32,22.10
2012,05,25,14,33,22.20
2012,05,25,14,34,22.10
2012,05,25,14,35,22.20
2012,05,25,14,36,22.20
2012,05,25,14,37,22.30
2012,05,25,14,38,22.40
2012,05,25,14,39,22.50
2012,05,25,14,40,22.70
2012,05,25,14,41,22.90
2012,05,25,14,42,23.00
2012,05,25,14,43,23.00
2012,05,25,14,44,23.00
2012,05,25,14,45,22.90
2012,05,25,14,46,22.90
2012,05,25,14,47,22.90
2012,05,25,14,48,22.90
2012,05,25,14,49,22.80
2012,05,25,14,50,22.70
2012,05,25,14,51,22.60
2012,05,25,14,52,22.60
2012,05,25,14,53,22.70
2012,05,25,14,54,22.70
2012,05,25,14,55,22.80
2012,05,25,14,56,22.80
2012,05,25,14,57,22.90
2012,05,25,14,58,23.00
2012,05,25,14,59,23.10
2012,05,25,15,00,23.20
2012,05,25,15,01,23.20
2012,05,25,15,02,23.40
2012,05,25,15,03,23.50
2012,05,25,15,04,23.70
2012,05,25,15,05,23.80
2012,05,25,15,06,23.90
2012,05,25,15,07,23.90
2012,05,25,15,08,23.90
2012,05,25,15,09,24.00
2012,05,25,15,10,24.00
2012,05,25,15,11,24.00
2012,05,25,15,12,24.10
2012,05,25,15,13,24.00
2012,05,25,15,14,23.90
2012,05,25,15,15,23.90
2012,05,25,15,16,23.80
2012,05,25,15,17,23.80
2012,05,25,15,18,23.80
2012,05,25,15,19,23.80
2012,05,25,15,20,24.00
2012,05,25,15,21,24.10
2012,05,25,15,22,24.20
2012,05,25,15,23,24.20
2012,05,25,15,24,24.20
2012,05,25,15,25,24.20
2012,05,25,15,26,24.20
2012,05,25,15,27,24.20
2012,05,25,15,28,24.20
2012,05,25,15,29,24.30
2012,05,25,15,30,24.30
2012,05,25,15,31,24.30
2012,05,25,15,32,24.40
2012,05,25,15,33,24.50
2012,05,25,15,34,24.50
2012,05,25,15,35,24.60
2012,05,25,15,36,24.60
2012,05,25,15,37,24.50
2012,05,25,15,38,24.50
2012,05,25,15,39,24.50
2012,05,25,15,40,24.40
2012,05,25,15,41,24.40
2012,05,25,15,42,24.40
2012,05,25,15,43,24.30
2012,05,25,15,44,24.30
2012,05,25,15,45,24.30
2012,05,25,15,46,24.30
2012,05,25,15,47,24.20
2012,05,25,15,48,24.10
2012,05,25,15,49,24.10
2012,05,25,15,50,24.10
2012,05,25,15,51,24.10
2012,05,25,15,52,24.10
2012,05,25,15,53,24.10
2012,05,25,15,54,24.10
2012,05,25,15,55,24.10
2012,05,25,15,56,24.20
2012,05,25,15,57,24.20
2012,05,25,15,58,24.20
2012,05,25,15,59,24.20
2012,05,25,16,00,24.30
2012,05,25,16,01,24.20
2012,05,25,16,02,24.20
2012,05,25,16,03,24.30
2012,05,25,16,04,24.30
2012,05,25,16,05,24.20
2012,05,25,16,06,23.90
2012,05,25,16,07,23.70
2012,05,25,16,08,23.60
2012,05,25,16,09,23.60
2012,05,25,16,10,23.60
2012,05,25,16,11,23.70
2012,05,25,16,12,23.70
2012,05,25,16,13,23.80
2012,05,25,16,14,23.80
2012,05,25,16,15,23.80
2012,05,25,16,16,23.70
2012,05,25,16,17,23.60
2012,05,25,16,18,23.50
2012,05,25,16,19,23.30
2012,05,25,16,20,23.20
2012,05,25,16,21,23.10
2012,05,25,16,22,23.10
2012,05,25,16,23,23.10
2012,05,25,16,24,23.10
2012,05,25,16,25,23.20
2012,05,25,16,26,23.30
2012,05,25,16,27,23.30
2012,05,25,16,28,23.40
2012,05,25,16,29,23.30
2012,05,25,16,30,23.30
2012,05,25,16,31,23.20
2012,05,25,16,32,23.20
2012,05,25,16,33,23.20
2012,05,25,16,34,23.30
2012,05,25,16,35,23.30
2012,05,25,16,36,23.30
2012,05,25,16,37,23.30
2012,05,25,16,38,23.30
2012,05,25,16,39,23.30
2012,05,25,16,40,23.30
2012,05,25,16,41,23.30
2012,05,25,16,42,23.30
2012,05,25,16,43,23.40
2012,05,25,16,44,23.40
2012,05,25,16,45,23.40
2012,05,25,16,46,23.40
2012,05,25,16,47,23.40
2012,05,25,16,48,23.50
2012,05,25,16,49,23.60
2012,05,25,16,50,23.60
2012,05,25,16,51,23.70
2012,05,25,16,52,23.60
2012,05,25,16,53,23.60
2012,05,25,16,54,23.60
2012,05,25,16,55,23.60
2012,05,25,16,56,23.40
2012,05,25,16,57,23.40
2012,05,25,16,58,23.40
2012,05,25,16,59,23.40
2012,05,25,17,00,23.40
2012,05,25,17,01,23.40
2012,05,25,17,02,23.40
2012,05,25,17,03,23.30
2012,05,25,17,04,23.30
2012,05,25,17,05,23.30
2012,05,25,17,06,23.30
2012,05,25,17,07,23.30
2012,05,25,17,08,23.30
2012,05,25,17,09,23.30
2012,05,25,17,10,23.30
2012,05,25,17,11,23.30
2012,05,25,17,12,23.30
2012,05,25,17,13,23.30
2012,05,25,17,14,23.30
2012,05,25,17,15,23.30
2012,05,25,17,16,23.30
2012,05,25,17,17,23.30
2012,05,25,17,18,23.30
2012,05,25,17,19,23.40
2012,05,25,17,20,23.50
2012,05,25,17,21,23.60
2012,05,25,17,22,23.70
2012,05,25,17,23,23.70
2012,05,25,17,24,23.60
2012,05,25,17,25,23.60